{"data":{"norad_id":48993,"intl_designator":"2021-060AC","name":"ONEWEB-0275","alt_names":[],"object_type":"PAYLOAD","status":"ACTIVE","operator":null,"country":"UK","launch_date":"2021-07-01","launch_site_code":"VOSTO","launch_vehicle":null,"mission":null,"orbit_class":"UNKNOWN","rcs_meters":null,"size_class":null,"mass_kg":null,"dimensions":null,"purposes":["comms"],"wikipedia_slug":null,"has_3d_model":false,"image_url":null,"decayed_at":null,"tle_current":{"epoch":"2026-05-25T04:51:22.463712Z","epoch_age_seconds":71718,"freshness":"FRESH","line1":"1 48993U 21060AC  26145.20234333  .00000036  00000+0  61729-4 0  9997","line2":"2 48993  87.9106 233.3385 0002006  97.1479 262.9880 13.16593182236531","mean_motion":13.16593182,"eccentricity":0.0002006,"inclination_deg":87.9106,"raan_deg":233.3385,"arg_perigee_deg":97.1479,"mean_anomaly_deg":262.988,"bstar":6.1729e-5,"rev_number":23653,"period_min":109.37319285009,"perigee_km":1196.2410658143,"apogee_km":1199.280516008,"semimajor_km":7575.8977909112,"source":"CELESTRAK","updated_at":"2026-05-25T13:38:22.478059Z"}}}